| time (UTC) | temp C | wind direction | speed KPH | gust KPH | rain 1hr cm | rain 24hr cm | rain mn cm | humidity % | barometer mb |
| 20260505083815 | 15 | 157 | 0.0 | 0.0 | 0.00 | 0.00 | 0.00 | 95 | 1015.2 |
| 20260505083312 | 15 | 160 | 0.0 | 0.0 | 0.00 | 0.00 | 0.00 | 94 | 1015.5 |
| 20260505082809 | 15 | 160 | 0.0 | 0.0 | 0.00 | 0.00 | 0.00 | 94 | 1015.3 |
| 20260505082305 | 15 | 159 | 0.0 | 0.0 | 0.00 | 0.00 | 0.00 | 94 | 1015.3 |
| 20260505081801 | 15 | 159 | 0.0 | 0.0 | 0.00 | 0.00 | 0.00 | 94 | 1015.1 |
| 20260505081259 | 15 | 155 | 0.0 | 0.0 | 0.00 | 0.00 | 0.00 | 94 | 1015.4 |
| 20260505080755 | 15 | 160 | 0.0 | 0.0 | 0.00 | 0.00 | 0.00 | 94 | 1015.2 |
| 20260505080251 | 15 | 165 | 0.0 | 0.0 | 0.00 | 0.00 | 0.00 | 94 | 1015.3 |
| 20260505075747 | 15 | 163 | 0.0 | 0.0 | 0.00 | 0.00 | 0.00 | 94 | 1015.5 |
| 20260505075244 | 15 | 163 | 0.0 | 0.0 | 0.00 | 0.00 | 0.00 | 94 | 1015.3 |
| 20260505074742 | 15 | 160 | 0.0 | 0.0 | 0.00 | 0.00 | 0.00 | 93 | 1015.1 |
| 20260505074239 | 15 | 163 | 0.0 | 0.0 | 0.00 | 0.00 | 0.00 | 93 | 1015.0 |
| 20260505073736 | 15 | 166 | 0.0 | 0.0 | 0.00 | 0.00 | 0.00 | 93 | 1015.3 |
| 20260505073233 | 15 | 164 | 0.0 | 0.0 | 0.00 | 0.00 | 0.00 | 93 | 1015.1 |
| 20260505072730 | 16 | 164 | 0.0 | 0.0 | 0.00 | 0.00 | 0.00 | 93 | 1015.1 |
| 20260505072226 | 16 | 157 | 0.0 | 0.0 | 0.00 | 0.00 | 0.00 | 92 | 1015.3 |
| 20260505071722 | 16 | 155 | 0.0 | 0.0 | 0.00 | 0.00 | 0.00 | 92 | 1015.3 |
| 20260505071219 | 16 | 160 | 0.0 | 0.0 | 0.00 | 0.00 | 0.00 | 92 | 1015.5 |
| 20260505070717 | 16 | 158 | 0.0 | 0.0 | 0.00 | 0.00 | 0.00 | 92 | 1015.5 |
| 20260505070213 | 16 | 157 | 0.0 | 0.0 | 0.00 | 0.00 | 0.00 | 92 | 1015.5 |
| 20260505065709 | 16 | 157 | 0.0 | 0.0 | 0.00 | 0.00 | 0.00 | 91 | 1015.4 |
| 20260505065206 | 16 | 157 | 0.0 | 0.0 | 0.00 | 0.00 | 0.00 | 91 | 1015.6 |
| 20260505064702 | 16 | 167 | 0.0 | 0.0 | 0.00 | 0.00 | 0.00 | 91 | 1015.6 |
| 20260505064201 | 16 | 167 | 0.0 | 0.0 | 0.00 | 0.00 | 0.00 | 91 | 1015.6 |
| 20260505063658 | 16 | 164 | 0.0 | 0.0 | 0.00 | 0.00 | 0.00 | 91 | 1015.6 |
| 20260505063154 | 16 | 165 | 0.0 | 0.0 | 0.00 | 0.00 | 0.00 | 90 | 1015.4 |
| 20260505062650 | 16 | 166 | 0.0 | 0.0 | 0.00 | 0.00 | 0.00 | 90 | 1015.8 |
| 20260505062148 | 16 | 163 | 0.0 | 0.0 | 0.00 | 0.00 | 0.00 | 90 | 1015.4 |
| 20260505061645 | 17 | 163 | 0.0 | 0.0 | 0.00 | 0.00 | 0.00 | 90 | 1015.8 |
| 20260505061143 | 17 | 163 | 0.0 | 0.0 | 0.00 | 0.00 | 0.00 | 89 | 1015.8 |
| 20260505060640 | 17 | 164 | 0.0 | 0.0 | 0.00 | 0.00 | 0.00 | 89 | 1015.9 |
| 20260505060136 | 17 | 161 | 0.0 | 0.0 | 0.00 | 0.00 | 0.00 | 89 | 1016.1 |
| 20260505055632 | 17 | 179 | 0.0 | 0.0 | 0.00 | 0.00 | 0.00 | 89 | 1015.9 |
| 20260505055129 | 17 | 155 | 0.0 | 0.0 | 0.00 | 0.00 | 0.00 | 89 | 1016.1 |
| 20260505054626 | 17 | 153 | 0.0 | 0.0 | 0.00 | 0.00 | 0.00 | 88 | 1016.1 |
| 20260505054124 | 17 | 160 | 0.0 | 0.0 | 0.00 | 0.00 | 0.00 | 88 | 1016.2 |
| 20260505053621 | 17 | 160 | 0.0 | 0.0 | 0.00 | 0.00 | 0.00 | 88 | 1016.2 |
| 20260505053117 | 17 | 166 | 0.0 | 0.0 | 0.00 | 0.00 | 0.00 | 87 | 1016.4 |
| 20260505052615 | 17 | 163 | 0.0 | 0.0 | 0.00 | 0.00 | 0.00 | 87 | 1016.4 |
| 20260505052112 | 17 | 163 | 0.0 | 0.0 | 0.00 | 0.00 | 0.00 | 87 | 1016.4 |
| 20260505051609 | 17 | 163 | 0.0 | 0.0 | 0.00 | 0.00 | 0.00 | 87 | 1016.5 |
| 20260505051107 | 17 | 166 | 0.0 | 0.0 | 0.00 | 0.00 | 0.00 | 86 | 1016.8 |
| 20260505050604 | 18 | 157 | 0.0 | 0.0 | 0.00 | 0.00 | 0.00 | 86 | 1016.4 |
| 20260505041532 | 19 | 154 | 0.0 | 0.0 | 0.00 | 0.00 | 0.00 | 82 | 1017.0 |
| 20260505041030 | 19 | 154 | 0.0 | 0.0 | 0.00 | 0.00 | 0.00 | 82 | 1017.1 |
| 20260505040527 | 19 | 154 | 0.0 | 0.0 | 0.00 | 0.00 | 0.00 | 82 | 1017.0 |
| 20260505040024 | 20 | 155 | 0.0 | 0.0 | 0.00 | 0.00 | 0.00 | 82 | 1017.1 |
| 20260505035520 | 20 | 157 | 0.0 | 0.0 | 0.00 | 0.00 | 0.00 | 81 | 1017.0 |
| 20260505035017 | 20 | 157 | 0.0 | 0.0 | 0.00 | 0.00 | 0.00 | 80 | 1017.1 |
| 20260505034513 | 20 | 157 | 0.0 | 0.0 | 0.00 | 0.00 | 0.00 | 80 | 1017.2 |
| 20260505034010 | 20 | 153 | 0.0 | 0.0 | 0.00 | 0.00 | 0.00 | 80 | 1017.3 |
| 20260505033507 | 20 | 165 | 0.0 | 0.0 | 0.00 | 0.00 | 0.00 | 79 | 1017.1 |
| 20260505033006 | 20 | 156 | 0.0 | 0.0 | 0.00 | 0.00 | 0.00 | 79 | 1017.1 |
| 20260505032503 | 20 | 153 | 0.0 | 0.0 | 0.00 | 0.00 | 0.00 | 78 | 1017.0 |
| 20260505031959 | 20 | 150 | 0.0 | 0.0 | 0.00 | 0.00 | 0.00 | 78 | 1017.0 |
| 20260505031456 | 21 | 151 | 0.0 | 0.0 | 0.00 | 0.00 | 0.00 | 78 | 1017.0 |
| 20260505030953 | 21 | 152 | 0.0 | 0.0 | 0.00 | 0.00 | 0.00 | 77 | 1016.7 |
| 20260505030449 | 21 | 140 | 1.6 | 1.6 | 0.00 | 0.00 | 0.00 | 77 | 1016.8 |
| 20260505025944 | 21 | 159 | 0.0 | 0.0 | 0.00 | 0.00 | 0.00 | 77 | 1016.9 |
| 20260505025442 | 21 | 166 | 0.0 | 0.0 | 0.00 | 0.00 | 0.00 | 78 | 1016.9 |
| 20260505024940 | 20 | 166 | 0.0 | 0.0 | 0.00 | 0.00 | 0.00 | 79 | 1017.1 |
| 20260505024437 | 20 | 164 | 0.0 | 0.0 | 0.00 | 0.00 | 0.00 | 79 | 1017.0 |
| 20260505023935 | 20 | 157 | 0.0 | 0.0 | 0.00 | 0.00 | 0.00 | 79 | 1017.0 |
| 20260505023431 | 20 | 161 | 0.0 | 0.0 | 0.00 | 0.00 | 0.00 | 79 | 1017.0 |
| 20260505022929 | 20 | 162 | 0.0 | 0.0 | 0.00 | 0.00 | 0.00 | 79 | 1017.2 |
| 20260505022427 | 20 | 158 | 0.0 | 0.0 | 0.00 | 0.00 | 0.00 | 79 | 1016.8 |
| 20260505021923 | 20 | 155 | 0.0 | 0.0 | 0.00 | 0.00 | 0.00 | 79 | 1016.9 |
| 20260505021420 | 20 | 153 | 0.0 | 0.0 | 0.00 | 0.00 | 0.00 | 79 | 1016.9 |
| 20260505020915 | 20 | 114 | 1.6 | 1.6 | 0.00 | 0.00 | 0.00 | 79 | 1016.8 |
| 20260505020411 | 20 | 156 | 0.0 | 0.0 | 0.00 | 0.00 | 0.00 | 80 | 1016.6 |
| 20260505015908 | 20 | 165 | 0.0 | 0.0 | 0.00 | 0.00 | 0.00 | 79 | 1016.3 |
| 20260505015405 | 20 | 152 | 0.0 | 0.0 | 0.00 | 0.00 | 0.00 | 78 | 1016.7 |
| 20260505014903 | 20 | 164 | 0.0 | 0.0 | 0.00 | 0.00 | 0.00 | 77 | 1016.6 |
| 20260505014359 | 21 | 143 | 0.0 | 0.0 | 0.00 | 0.00 | 0.00 | 77 | 1016.7 |
| 20260505013856 | 21 | 150 | 0.0 | 0.0 | 0.00 | 0.00 | 0.00 | 76 | 1016.3 |
| 20260505013353 | 21 | 174 | 0.0 | 0.0 | 0.00 | 0.00 | 0.00 | 76 | 1016.3 |
| 20260505012851 | 21 | 156 | 0.0 | 0.0 | 0.00 | 0.00 | 0.00 | 74 | 1015.9 |
| 20260505012349 | 22 | 166 | 1.6 | 1.6 | 0.00 | 0.00 | 0.00 | 74 | 1016.0 |
| 20260505011845 | 21 | 134 | 0.0 | 1.6 | 0.00 | 0.00 | 0.00 | 74 | 1015.7 |
| 20260505011342 | 22 | 128 | 0.0 | 3.2 | 0.00 | 0.00 | 0.00 | 73 | 1016.1 |
| 20260505010838 | 22 | 162 | 0.0 | 1.6 | 0.00 | 0.00 | 0.00 | 73 | 1015.7 |
| 20260505010333 | 22 | 171 | 1.6 | 1.6 | 0.00 | 0.00 | 0.00 | 71 | 1015.8 |
| 20260505005830 | 22 | 266 | 1.6 | 3.2 | 0.00 | 0.00 | 0.00 | 71 | 1015.6 |
| 20260505005327 | 22 | 136 | 3.2 | 3.2 | 0.00 | 0.00 | 0.00 | 74 | 1015.6 |
| 20260505004825 | 22 | 189 | 1.6 | 3.2 | 0.00 | 0.00 | 0.00 | 73 | 1015.7 |
| 20260505004321 | 22 | 169 | 0.0 | 0.0 | 0.00 | 0.00 | 0.00 | 73 | 1015.3 |
| 20260505003818 | 22 | 145 | 0.0 | 0.0 | 0.00 | 0.00 | 0.00 | 72 | 1015.3 |
| 20260505003315 | 22 | 164 | 0.0 | 1.6 | 0.00 | 0.00 | 0.00 | 71 | 1015.2 |
| 20260505002811 | 23 | 197 | 0.0 | 1.6 | 0.00 | 0.00 | 0.00 | 70 | 1015.4 |
| 20260505002309 | 23 | 223 | 1.6 | 3.2 | 0.00 | 0.00 | 0.00 | 69 | 1015.4 |
| 20260505001807 | 23 | 130 | 1.6 | 1.6 | 0.00 | 0.00 | 0.00 | 68 | 1015.4 |
| 20260505001303 | 23 | 152 | 0.0 | 0.0 | 0.00 | 0.00 | 0.00 | 67 | 1015.0 |
| 20260505000801 | 23 | 166 | 0.0 | 0.0 | 0.00 | 0.00 | 0.00 | 66 | 1015.3 |
| 20260505000258 | 23 | 174 | 0.0 | 1.6 | 0.00 | 0.00 | 0.00 | 65 | 1015.4 |
| 20260504235755 | 24 | 294 | 1.6 | 1.6 | 0.00 | 0.00 | 0.00 | 64 | 1015.2 |
| 20260504235251 | 24 | 201 | 0.0 | 1.6 | 0.00 | 0.00 | 0.00 | 63 | 1015.1 |
| 20260504234748 | 25 | 223 | 1.6 | 3.2 | 0.00 | 0.00 | 0.00 | 62 | 1014.9 |
| 20260504234246 | 25 | 173 | 0.0 | 1.6 | 0.00 | 0.00 | 0.00 | 61 | 1014.6 |
| 20260504233742 | 25 | 162 | 0.0 | 1.6 | 0.00 | 0.00 | 0.00 | 60 | 1014.8 |
| 20260504233237 | 25 | 260 | 3.2 | 3.2 | 0.00 | 0.00 | 0.00 | 58 | 1014.3 |
| 20260504232734 | 25 | 290 | 3.2 | 4.8 | 0.00 | 0.00 | 0.00 | 58 | 1014.5 |
| 20260504232226 | 25 | 257 | 4.8 | 4.8 | 0.00 | 0.00 | 0.00 | 57 | 1014.4 |
| 20260504231723 | 25 | 278 | 1.6 | 1.6 | 0.00 | 0.00 | 0.00 | 56 | 1014.5 |
| 20260504231219 | 26 | 297 | 4.8 | 4.8 | 0.00 | 0.00 | 0.00 | 54 | 1014.5 |
| 20260504230715 | 26 | 216 | 1.6 | 4.8 | 0.00 | 0.00 | 0.00 | 54 | 1014.2 |
| 20260504230214 | 26 | 189 | 1.6 | 3.2 | 0.00 | 0.00 | 0.00 | 51 | 1014.0 |
| 20260504225712 | 27 | 267 | 1.6 | 3.2 | 0.00 | 0.00 | 0.00 | 49 | 1014.2 |
| 20260504225208 | 27 | 178 | 0.0 | 3.2 | 0.00 | 0.00 | 0.00 | 47 | 1014.3 |
| 20260504224705 | 27 | 176 | 1.6 | 1.6 | 0.00 | 0.00 | 0.00 | 45 | 1014.4 |
| 20260504224203 | 27 | 186 | 0.0 | 1.6 | 0.00 | 0.00 | 0.00 | 46 | 1014.5 |
| 20260504223659 | 28 | 232 | 1.6 | 3.2 | 0.00 | 0.00 | 0.00 | 44 | 1014.2 |
| 20260504223154 | 28 | 193 | 1.6 | 3.2 | 0.00 | 0.00 | 0.00 | 45 | 1014.3 |
| 20260504222652 | 28 | 38 | 0.0 | 1.6 | 0.00 | 0.00 | 0.00 | 45 | 1014.3 |
| 20260504222148 | 28 | 212 | 3.2 | 3.2 | 0.00 | 0.00 | 0.00 | 45 | 1014.3 |
| 20260504221646 | 27 | 223 | 1.6 | 3.2 | 0.00 | 0.00 | 0.00 | 46 | 1014.3 |
| 20260504221143 | 28 | 299 | 4.8 | 4.8 | 0.00 | 0.00 | 0.00 | 46 | 1014.3 |
| 20260504220639 | 29 | 278 | 1.6 | 3.2 | 0.00 | 0.00 | 0.00 | 43 | 1014.3 |
| 20260504220137 | 28 | 160 | 0.0 | 3.2 | 0.00 | 0.00 | 0.00 | 44 | 1014.4 |
| 20260504215633 | 28 | 301 | 4.8 | 9.7 | 0.00 | 0.00 | 0.00 | 44 | 1014.7 |
| 20260504215131 | 28 | 141 | 1.6 | 3.2 | 0.00 | 0.00 | 0.00 | 39 | 1014.4 |
| 20260504214626 | 28 | 134 | 1.6 | 3.2 | 0.00 | 0.00 | 0.00 | 31 | 1014.4 |
| 20260504214123 | 28 | 214 | 1.6 | 4.8 | 0.00 | 0.00 | 0.00 | 32 | 1014.6 |
| 20260504213619 | 28 | 320 | 3.2 | 3.2 | 0.00 | 0.00 | 0.00 | 39 | 1014.3 |
| 20260504213116 | 28 | 85 | 0.0 | 3.2 | 0.00 | 0.00 | 0.00 | 33 | 1014.7 |
| 20260504212612 | 28 | 71 | 1.6 | 3.2 | 0.00 | 0.00 | 0.00 | 34 | 1014.4 |
| 20260504212110 | 28 | 213 | 4.8 | 4.8 | 0.00 | 0.00 | 0.00 | 34 | 1014.6 |
| 20260504211607 | 28 | 225 | 3.2 | 4.8 | 0.00 | 0.00 | 0.00 | 34 | 1014.5 |
| 20260504211103 | 29 | 172 | 1.6 | 3.2 | 0.00 | 0.00 | 0.00 | 34 | 1014.7 |
| 20260504210601 | 28 | 139 | 0.0 | 3.2 | 0.00 | 0.00 | 0.00 | 37 | 1014.6 |
| 20260504210057 | 29 | 55 | 1.6 | 8.0 | 0.00 | 0.00 | 0.00 | 36 | 1014.8 |
| 20260504205555 | 28 | 194 | 1.6 | 8.0 | 0.00 | 0.00 | 0.00 | 35 | 1014.8 |
| 20260504205053 | 28 | 77 | 4.8 | 4.8 | 0.00 | 0.00 | 0.00 | 37 | 1014.8 |
| 20260504204550 | 28 | 182 | 1.6 | 4.8 | 0.00 | 0.00 | 0.00 | 37 | 1015.0 |
| 20260504204050 | 28 | 206 | 1.6 | 3.2 | 0.00 | 0.00 | 0.00 | 37 | 1015.0 |
| 20260504203547 | 28 | 160 | 0.0 | 1.6 | 0.00 | 0.00 | 0.00 | 36 | 1014.9 |
| 20260504203044 | 28 | 139 | 3.2 | 3.2 | 0.00 | 0.00 | 0.00 | 36 | 1014.9 |
| 20260504202539 | 29 | 138 | 1.6 | 3.2 | 0.00 | 0.00 | 0.00 | 35 | 1015.0 |
| 20260504202037 | 28 | 70 | 1.6 | 1.6 | 0.00 | 0.00 | 0.00 | 37 | 1014.9 |
| 20260504201534 | 29 | 76 | 1.6 | 8.0 | 0.00 | 0.00 | 0.00 | 37 | 1014.8 |
| 20260504201032 | 29 | 29 | 3.2 | 4.8 | 0.00 | 0.00 | 0.00 | 36 | 1014.5 |
| 20260504200527 | 28 | 170 | 1.6 | 1.6 | 0.00 | 0.00 | 0.00 | 36 | 1014.8 |
| 20260504200025 | 28 | 113 | 0.0 | 3.2 | 0.00 | 0.00 | 0.00 | 35 | 1015.1 |
| 20260504195521 | 28 | 84 | 1.6 | 4.8 | 0.00 | 0.00 | 0.00 | 37 | 1015.3 |
| 20260504195017 | 28 | 124 | 4.8 | 4.8 | 0.00 | 0.00 | 0.00 | 38 | 1015.1 |
| 20260504194514 | 29 | 158 | 1.6 | 3.2 | 0.00 | 0.00 | 0.00 | 38 | 1015.2 |
| 20260504194009 | 29 | 128 | 3.2 | 4.8 | 0.00 | 0.00 | 0.00 | 38 | 1015.2 |
| 20260504193506 | 29 | 175 | 1.6 | 4.8 | 0.00 | 0.00 | 0.00 | 36 | 1015.3 |
| 20260504193005 | 29 | 117 | 1.6 | 3.2 | 0.00 | 0.00 | 0.00 | 37 | 1015.4 |
| 20260504192503 | 29 | 134 | 1.6 | 3.2 | 0.00 | 0.00 | 0.00 | 38 | 1015.2 |
| 20260504192001 | 29 | 318 | 3.2 | 3.2 | 0.00 | 0.00 | 0.00 | 38 | 1015.7 |
| 20260504191458 | 29 | 101 | 4.8 | 9.7 | 0.00 | 0.00 | 0.00 | 37 | 1015.6 |
| 20260504190954 | 28 | 53 | 1.6 | 4.8 | 0.00 | 0.00 | 0.00 | 39 | 1015.6 |
| 20260504190450 | 29 | 178 | 3.2 | 4.8 | 0.00 | 0.00 | 0.00 | 38 | 1015.9 |
| 20260504185946 | 28 | 236 | 1.6 | 4.8 | 0.00 | 0.00 | 0.00 | 38 | 1015.9 |
| 20260504185444 | 29 | 210 | 1.6 | 3.2 | 0.00 | 0.00 | 0.00 | 38 | 1015.8 |
| 20260504184939 | 28 | 157 | 4.8 | 8.0 | 0.00 | 0.00 | 0.00 | 38 | 1015.9 |
| 20260504184436 | 28 | 188 | 1.6 | 4.8 | 0.00 | 0.00 | 0.00 | 39 | 1016.1 |
| 20260504183931 | 28 | 134 | 4.8 | 4.8 | 0.00 | 0.00 | 0.00 | 38 | 1016.4 |
| 20260504183429 | 28 | 171 | 3.2 | 8.0 | 0.00 | 0.00 | 0.00 | 38 | 1016.4 |
| 20260504182927 | 28 | 117 | 3.2 | 8.0 | 0.00 | 0.00 | 0.00 | 37 | 1016.5 |
| 20260504182423 | 28 | 170 | 3.2 | 9.7 | 0.00 | 0.00 | 0.00 | 37 | 1016.6 |
| 20260504181921 | 28 | 133 | 1.6 | 8.0 | 0.00 | 0.00 | 0.00 | 38 | 1016.6 |
| 20260504181418 | 28 | 142 | 4.8 | 9.7 | 0.00 | 0.00 | 0.00 | 39 | 1016.5 |
| 20260504180917 | 28 | 126 | 3.2 | 4.8 | 0.00 | 0.00 | 0.00 | 39 | 1016.6 |
| 20260504180415 | 28 | 137 | 4.8 | 8.0 | 0.00 | 0.00 | 0.00 | 39 | 1016.5 |
| 20260504175913 | 28 | 184 | 1.6 | 4.8 | 0.00 | 0.00 | 0.00 | 39 | 1016.5 |
| 20260504175409 | 28 | 166 | 1.6 | 3.2 | 0.00 | 0.00 | 0.00 | 38 | 1016.8 |
| 20260504174907 | 28 | 243 | 3.2 | 4.8 | 0.00 | 0.00 | 0.00 | 41 | 1016.9 |
| 20260504174405 | 28 | 245 | 1.6 | 3.2 | 0.00 | 0.00 | 0.00 | 41 | 1016.8 |
| 20260504173902 | 28 | 211 | 1.6 | 8.0 | 0.00 | 0.00 | 0.00 | 40 | 1016.9 |
| 20260504173358 | 28 | 9 | 1.6 | 4.8 | 0.00 | 0.00 | 0.00 | 39 | 1017.0 |
| 20260504172855 | 28 | 279 | 1.6 | 4.8 | 0.00 | 0.00 | 0.00 | 39 | 1017.2 |
| 20260504172352 | 28 | 131 | 3.2 | 8.0 | 0.00 | 0.00 | 0.00 | 39 | 1017.2 |
| 20260504171847 | 28 | 211 | 1.6 | 3.2 | 0.00 | 0.00 | 0.00 | 41 | 1017.2 |
| 20260504171345 | 27 | 67 | 4.8 | 4.8 | 0.00 | 0.00 | 0.00 | 41 | 1017.2 |
| 20260504170842 | 26 | 41 | 1.6 | 3.2 | 0.00 | 0.00 | 0.00 | 43 | 1017.2 |
| 20260504170338 | 27 | 341 | 3.2 | 3.2 | 0.00 | 0.00 | 0.00 | 41 | 1017.3 |
| 20260504160257 | 26 | 154 | 4.8 | 12.9 | 0.00 | 0.00 | 0.00 | 48 | 1018.1 |
| 20260504150722 | 26 | 146 | 1.6 | 8.0 | 0.00 | 0.00 | 0.00 | 52 | 1018.3 |
| 20260504150219 | 26 | 36 | 1.6 | 3.2 | 0.00 | 0.00 | 0.00 | 53 | 1018.4 |
| 20260504141148 | 25 | 115 | 0.0 | 4.8 | 0.00 | 0.00 | 0.00 | 60 | 1018.4 |
| 20260504140645 | 25 | 99 | 0.0 | 3.2 | 0.00 | 0.00 | 0.00 | 61 | 1018.4 |
| 20260504140141 | 24 | 80 | 1.6 | 3.2 | 0.00 | 0.00 | 0.00 | 62 | 1018.3 |
| 20260504130609 | 22 | 129 | 0.0 | 0.0 | 0.00 | 0.00 | 0.00 | 72 | 1018.0 |
| 20260504130106 | 22 | 99 | 0.0 | 1.6 | 0.00 | 0.00 | 0.00 | 73 | 1017.9 |
| 20260504110457 | 13 | 172 | 0.0 | 0.0 | 0.00 | 0.00 | 0.00 | 97 | 1017.5 |
| 20260504100413 | 13 | 164 | 0.0 | 0.0 | 0.00 | 0.00 | 0.00 | 96 | 1017.0 |